Weather History for Omaha Millard, NE

Change the Weather History Date:

Monday, February 11, 2013

  Actual Average (KOMA) Record (KOMA)
Temperature  
Mean Temperature 29 °F 27 °F  
Max Temperature 35 °F 37 °F 68 °F (1951)
Min Temperature 23 °F 17 °F -26 °F (1899)
Degree Days  
Heating Degree Days 36 38  
Month to date heating degree days 433  
Since 1 July heating degree days 4198  
Cooling Degree Days 0 0  
Month to date cooling degree days 0  
Year to date cooling degree days 0  
Moisture  
Dew Point 22 °F    
Average Humidity 70    
Maximum Humidity 89    
Minimum Humidity 60    
Precipitation  
Precipitation 0.00 in 0.03 in 1.47 in (1965)
Month to date precipitation 0.30  
Year to date precipitation 1.02  
Snow  
Snow 0.00 in 0.30 in - ()
Month to date snowfall 2.6  
Since 1 July snowfall 17.7  
Snow Depth -    
Sea Level Pressure  
Sea Level Pressure 30.05 in    
Wind  
Wind Speed 16 mph (NW)    
Max Wind Speed 26 mph    
Max Gust Speed 41 mph    
Visibility 10 miles    
Events      
T = Trace of Precipitation, MM = Missing Value Source: NWS Daily Summary

Daily Weather History Graph

Daily Weather History Graph

Search for Another Location

Airport:

Trip Planner

Search our weather history database for the weather conditions in past years. The results will help you decide how hot, cold, wet, or windy it might be!

Date:

Astronomy

Feb. 11, 2013 Rise Set
Actual Time 7:23 AM CST 5:54 PM CST
Civil Twilight 6:55 AM CST 6:22 PM CST
Nautical Twilight 6:22 AM CST 6:55 PM CST
Astronomical Twilight 5:50 AM CST 7:27 PM CST
Moon 7:47 AM CST (2/11) 7:53 PM CST (2/11)
Length of Visible Light 11h 27m
Length of Day
10h 30m
Waxing Crescent, 3% of the Moon is Illuminated
Feb 11
Waxing Crescent
Feb 17
First Quarter
Feb 25
Full
Mar 4
Last Quarter
Mar 11
New

Hourly Weather History & Observations

Time (CST) Temp. Windchill Dew Point Humidity Pressure Visibility Wind Dir Wind Speed Gust Speed Precip Events Conditions
12:15 AM 31.5 °F 19.1 °F 22.5 °F 69% 29.81 in 10.0 mi WNW 20.7 mph 31.1 mph N/A   Mostly Cloudy
12:35 AM 32.0 °F 19.5 °F 22.1 °F 67% 29.83 in 10.0 mi WNW 21.9 mph 29.9 mph N/A   Overcast
12:55 AM 32.0 °F 18.4 °F 21.7 °F 66% 29.84 in 10.0 mi WNW 26.5 mph 41.4 mph N/A   Mostly Cloudy
1:15 AM 31.8 °F 19.6 °F 22.1 °F 67% 29.85 in 10.0 mi WNW 20.7 mph 35.7 mph N/A   Mostly Cloudy
1:35 AM 31.5 °F 19.4 °F 23.2 °F 71% 29.86 in 10.0 mi WNW 19.6 mph 33.4 mph N/A   Mostly Cloudy
1:55 AM 31.1 °F 20.1 °F 23.9 °F 75% 29.87 in 10.0 mi WNW 16.1 mph 24.2 mph N/A   Overcast
2:15 AM 30.9 °F 17.2 °F 24.4 °F 77% 29.87 in 10.0 mi WNW 25.3 mph 34.5 mph N/A   Scattered Clouds
2:35 AM 31.1 °F 18.3 °F 23.5 °F 74% 29.89 in 10.0 mi WNW 21.9 mph 32.2 mph N/A   Mostly Cloudy
2:55 AM 30.9 °F 16.9 °F 22.6 °F 71% 29.90 in 10.0 mi NW 26.5 mph 33.4 mph N/A   Scattered Clouds
3:15 AM 30.9 °F 17.2 °F 22.3 °F 70% 29.91 in 10.0 mi NW 25.3 mph 34.5 mph N/A   Clear
3:35 AM 30.6 °F 18.6 °F 22.1 °F 71% 29.91 in 10.0 mi NW 18.4 mph 33.4 mph N/A   Clear
3:55 AM 30.7 °F 19.6 °F 21.7 °F 69% 29.91 in 10.0 mi NW 16.1 mph 32.2 mph N/A   Clear
4:15 AM 30.2 °F 17.8 °F 22.1 °F 72% 29.92 in 10.0 mi WNW 19.6 mph 26.5 mph N/A   Clear
4:35 AM 30.2 °F 17.8 °F 21.0 °F 69% 29.94 in 10.0 mi NW 19.6 mph 28.8 mph N/A   Scattered Clouds
4:55 AM 29.8 °F 17.3 °F 21.7 °F 72% 29.96 in 10.0 mi WNW 19.6 mph 25.3 mph N/A   Scattered Clouds
5:15 AM 29.5 °F 17.6 °F 21.0 °F 71% 29.97 in 10.0 mi WNW 17.3 mph 31.1 mph N/A   Scattered Clouds
5:55 AM 29.7 °F 17.8 °F 21.7 °F 72% 30.00 in 10.0 mi WNW 17.3 mph 25.3 mph N/A   Overcast
6:15 AM 29.8 °F 20.3 °F 22.1 °F 73% 30.00 in 10.0 mi WNW 11.5 mph 20.7 mph N/A   Overcast
6:35 AM 30.0 °F 16.9 °F 22.1 °F 72% 30.01 in 10.0 mi WNW 21.9 mph 26.5 mph N/A   Overcast
6:55 AM 30.0 °F 16.6 °F 21.4 °F 70% 30.01 in 10.0 mi WNW 23.0 mph 32.2 mph N/A   Overcast
7:15 AM 30.0 °F 16.9 °F 21.6 °F 71% 30.02 in 10.0 mi WNW 21.9 mph 27.6 mph N/A   Overcast
7:35 AM 29.5 °F 18.0 °F 21.2 °F 71% 30.03 in 10.0 mi NW 16.1 mph 25.3 mph N/A   Mostly Cloudy
7:55 AM 29.3 °F 17.3 °F 21.0 °F 71% 30.03 in 10.0 mi NW 17.3 mph 24.2 mph N/A   Mostly Cloudy
8:15 AM 29.7 °F 18.6 °F 21.4 °F 71% 30.04 in 10.0 mi NW 15.0 mph 20.7 mph N/A   Scattered Clouds
8:35 AM 30.0 °F 16.9 °F 21.4 °F 70% 30.05 in 10.0 mi WNW 21.9 mph 25.3 mph N/A   Scattered Clouds
8:55 AM 30.2 °F 19.3 °F 20.7 °F 68% 30.06 in 10.0 mi WNW 15.0 mph 29.9 mph N/A   Scattered Clouds
9:15 AM 30.0 °F 19.1 °F 21.0 °F 69% 30.08 in 10.0 mi NW 15.0 mph 26.5 mph N/A   Mostly Cloudy
9:35 AM 30.2 °F 20.2 °F 21.0 °F 69% 30.09 in 10.0 mi NW 12.7 mph 19.6 mph N/A   Overcast
9:55 AM 30.6 °F 21.8 °F 21.0 °F 68% 30.10 in 10.0 mi NW 10.4 mph - N/A   Overcast
10:15 AM 31.1 °F 20.9 °F 21.2 °F 67% 30.10 in 10.0 mi WNW 13.8 mph 20.7 mph N/A   Overcast
10:35 AM 31.1 °F 22.4 °F 21.0 °F 66% 30.11 in 10.0 mi NW 10.4 mph 20.7 mph N/A   Overcast
10:55 AM 31.5 °F 21.4 °F 21.4 °F 66% 30.11 in 10.0 mi NW 13.8 mph 19.6 mph N/A   Overcast
11:15 AM 32.0 °F 23.0 °F 21.0 °F 64% 30.11 in 10.0 mi NNW 11.5 mph 18.4 mph N/A   Scattered Clouds
11:35 AM 32.5 °F 22.3 °F 21.2 °F 63% 30.12 in 10.0 mi WNW 15.0 mph 19.6 mph N/A   Scattered Clouds
11:55 AM 32.9 °F 23.7 °F 21.4 °F 63% 30.12 in 10.0 mi NW 12.7 mph 20.7 mph N/A   Scattered Clouds
12:15 PM 33.8 °F 23.9 °F 22.1 °F 62% 30.12 in 10.0 mi NW 15.0 mph 19.6 mph N/A   Scattered Clouds
12:35 PM 34.2 °F 24.8 °F 22.1 °F 61% 30.11 in 10.0 mi West 13.8 mph 20.7 mph N/A   Mostly Cloudy
12:55 PM 34.3 °F 26.5 °F 21.7 °F 60% 30.11 in 10.0 mi NW 10.4 mph 19.6 mph N/A   Scattered Clouds
1:15 PM 33.8 °F 24.3 °F 22.1 °F 62% 30.11 in 10.0 mi WNW 13.8 mph - N/A   Scattered Clouds
1:35 PM 35.1 °F 25.9 °F 22.3 °F 60% 30.11 in 10.0 mi West 13.8 mph 20.7 mph N/A   Mostly Cloudy
1:55 PM 34.0 °F 25.0 °F 22.5 °F 63% 30.12 in 10.0 mi WNW 12.7 mph 16.1 mph N/A   Overcast
2:15 PM 34.2 °F 25.7 °F 22.8 °F 63% 30.12 in 10.0 mi West 11.5 mph - N/A   Overcast
2:35 PM 34.2 °F 24.4 °F 22.8 °F 63% 30.12 in 10.0 mi WNW 15.0 mph - N/A   Overcast
2:55 PM 34.7 °F 27.5 °F 23.0 °F 62% 30.11 in 10.0 mi WNW 9.2 mph - N/A   Overcast
3:15 PM 34.7 °F 25.1 °F 22.8 °F 62% 30.11 in 10.0 mi WNW 15.0 mph 19.6 mph N/A   Overcast
3:35 PM 34.7 °F 26.9 °F 23.0 °F 62% 30.11 in 10.0 mi NNW 10.4 mph 17.3 mph N/A   Overcast
3:55 PM 35.1 °F 27.9 °F 22.8 °F 61% 30.11 in 10.0 mi NW 9.2 mph - N/A   Overcast
4:55 PM 34.2 °F 26.8 °F 22.6 °F 63% 30.11 in 10.0 mi NW 9.2 mph - N/A   Mostly Cloudy
5:15 PM 34.0 °F 25.5 °F 22.8 °F 64% 30.11 in 10.0 mi NW 11.5 mph - N/A   Scattered Clouds
5:35 PM 33.6 °F 27.5 °F 23.0 °F 65% 30.10 in 10.0 mi NNW 6.9 mph - N/A   Clear
5:55 PM 32.9 °F 25.3 °F 22.8 °F 66% 30.10 in 10.0 mi NW 9.2 mph - N/A   Clear
6:15 PM 32.0 °F 27.5 °F 22.6 °F 68% 30.11 in 10.0 mi North 4.6 mph - N/A   Clear
6:35 PM 31.8 °F 27.3 °F 22.5 °F 68% 30.12 in 10.0 mi NNW 4.6 mph - N/A   Clear
6:55 PM 31.1 °F 25.4 °F 22.1 °F 69% 30.13 in 10.0 mi NNW 5.8 mph - N/A   Clear
7:15 PM 30.6 °F - 22.1 °F 71% 30.14 in 10.0 mi Calm Calm - N/A   Clear
7:35 PM 29.8 °F 23.9 °F 22.1 °F 73% 30.14 in 10.0 mi NW 5.8 mph - N/A   Clear
7:55 PM 29.3 °F - 22.1 °F 75% 30.14 in 10.0 mi Calm Calm - N/A   Clear
8:15 PM 28.9 °F 25.2 °F 21.9 °F 75% 30.14 in 10.0 mi NNW 3.5 mph - N/A   Clear
8:35 PM 27.7 °F 23.8 °F 21.4 °F 77% 30.13 in 10.0 mi NW 3.5 mph - N/A   Clear
8:55 PM 27.5 °F 23.6 °F 21.6 °F 78% 30.13 in 10.0 mi WNW 3.5 mph - N/A   Clear
9:15 PM 26.4 °F 22.4 °F 21.0 °F 80% 30.13 in 10.0 mi NW 3.5 mph - N/A   Clear
9:35 PM 26.6 °F - 21.0 °F 79% 30.13 in 10.0 mi Calm Calm - N/A   Clear
9:55 PM 26.4 °F - 20.8 °F 79% 30.14 in 10.0 mi Calm Calm - N/A   Clear
10:15 PM 26.4 °F - 21.4 °F 81% 30.14 in 10.0 mi Calm Calm - N/A   Clear
10:35 PM 24.4 °F - 20.1 °F 84% 30.14 in 10.0 mi Calm Calm - N/A   Clear
10:55 PM 25.2 °F - 21.0 °F 84% 30.15 in 10.0 mi Calm Calm - N/A   Clear
11:15 PM 24.3 °F - 21.0 °F 87% 30.15 in 10.0 mi Calm Calm - N/A   Clear
11:35 PM 23.9 °F - 20.5 °F 87% 30.16 in 10.0 mi Calm Calm - N/A   Clear
11:55 PM 23.7 °F - 21.0 °F 89% 30.16 in 10.0 mi Calm Calm - N/A   Clear